Santa Monica, CA

3:38 AM PDT on August 14, 2018 (GMT -0700)
Santa Monica Municipal

Weather History for KSMO - May, 2018

Change the Weather History Date:

Thursday, May 17, 2018

  Actual Average Record
Temperature  
Mean Temperature 60 °F -  
Max Temperature 66 °F 74 °F 88 °F (1967)
Min Temperature 54 °F 56 °F 45 °F (1935)
Degree Days  
Heating Degree Days 5    
Growing Degree Days 10 (Base 50)    
Moisture  
Dew Point 52 °F    
Average Humidity 74    
Maximum Humidity 87    
Minimum Humidity 56    
Precipitation  
Precipitation 0.00 in - - ()
Sea Level Pressure  
Sea Level Pressure 29.96 in    
Wind  
Wind Speed 5 mph (SSW)    
Max Wind Speed 12 mph    
Max Gust Speed -    
Visibility 10 miles    
Events      
Averages and records for this station are not official NWS values.
T = Trace of Precipitation, MM = Missing Value Source: NWS Daily Summary

Daily Weather History Graph

Daily Weather History Graph

Search for Another Location

Airport or City:

Astronomy

May. 17, 2018 Rise Set
Actual Time 5:50 AM PDT 7:49 PM PDT
Civil Twilight 5:23 AM PDT 8:17 PM PDT
Nautical Twilight 4:49 AM PDT 8:51 PM PDT
Astronomical Twilight 4:13 AM PDT 9:27 PM PDT
Moon 7:59 AM PDT (5/17) 10:27 PM PDT (5/17)
Length of Visible Light 14h 54m
Length of Day
13h 59m
Waxing Crescent, 7% of the Moon is Illuminated
May 17
Waxing Crescent
May 21
First Quarter
May 29
Full
Jun 6
Last Quarter
Jun 13
New

Hourly Weather History & Observations

Time (PDT) Temp. Dew Point Humidity Pressure Visibility Wind Dir Wind Speed Gust Speed Precip Events Conditions
12:51 AM 57.0 °F 51.1 °F 81% 29.96 in 10.0 mi Calm Calm - N/A   Clear
1:51 AM 57.0 °F 50.0 °F 77% 29.95 in 10.0 mi ENE 4.6 mph - N/A   Clear
2:51 AM 55.9 °F 50.0 °F 80% 29.94 in 10.0 mi NE 3.5 mph - N/A   Clear
3:51 AM 55.0 °F 50.0 °F 83% 29.94 in 10.0 mi ENE 4.6 mph - N/A   Clear
4:51 AM 55.0 °F 51.1 °F 86% 29.95 in 10.0 mi Calm Calm - N/A   Clear
5:51 AM 54.0 °F 50.0 °F 86% 29.95 in 10.0 mi Calm Calm - N/A   Clear
6:51 AM 57.0 °F 50.0 °F 77% 29.96 in 10.0 mi Variable 3.5 mph - N/A   Clear
7:51 AM 60.1 °F 50.0 °F 69% 29.96 in 10.0 mi ENE 4.6 mph - N/A   Clear
8:51 AM 62.1 °F 50.0 °F 65% 29.97 in 10.0 mi Variable 3.5 mph - N/A   Clear
9:51 AM 64.0 °F 50.0 °F 60% 29.97 in 10.0 mi SSW 9.2 mph - N/A   Clear
10:51 AM 64.9 °F 48.9 °F 56% 29.98 in 10.0 mi SW 11.5 mph - N/A   Partly Cloudy
11:51 AM 64.0 °F 51.1 °F 63% 29.99 in 10.0 mi SW 9.2 mph - N/A   Clear
12:51 PM 64.0 °F 52.0 °F 65% 29.99 in 10.0 mi SW 11.5 mph - N/A   Clear
1:51 PM 66.0 °F 51.1 °F 59% 29.98 in 10.0 mi SW 10.4 mph - N/A   Clear
2:51 PM 64.0 °F 53.1 °F 67% 29.97 in 10.0 mi WSW 10.4 mph - N/A   Clear
3:51 PM 64.9 °F 53.1 °F 65% 29.96 in 10.0 mi WSW 8.1 mph - N/A   Clear
4:51 PM 64.0 °F 52.0 °F 65% 29.96 in 10.0 mi WSW 6.9 mph - N/A   Clear
5:51 PM 64.0 °F 53.1 °F 67% 29.95 in 10.0 mi WSW 9.2 mph - N/A   Clear
6:51 PM 62.1 °F 53.1 °F 72% 29.95 in 10.0 mi SW 6.9 mph - N/A   Clear
7:51 PM 60.1 °F 54.0 °F 80% 29.95 in 10.0 mi SW 5.8 mph - N/A   Clear
8:51 PM 60.1 °F 53.1 °F 78% 29.96 in 10.0 mi SW 4.6 mph - N/A   Clear
9:51 PM 59.0 °F 54.0 °F 83% 29.96 in 10.0 mi South 3.5 mph - N/A   Clear
10:24 PM 59.0 °F 54.0 °F 83% 29.97 in 10.0 mi South 4.6 mph - N/A   Partly Cloudy
10:51 PM 57.9 °F 54.0 °F 87% 29.96 in 10.0 mi South 4.6 mph - N/A   Clear
11:51 PM 57.9 °F 54.0 °F 87% 29.96 in 10.0 mi SE 5.8 mph - N/A   Clear